AZU4853 SBKP-SBVT

Flight info

Callsign AZU4853
Flight time N/A
Altitude 37000
Route UREMI UZ42 IMDAB DCT SEGLI DCT TODET
Aircraft A20N/M-SDE2E3FGHIRWXY/LB1

Departure

Time 2026-05-01 12:17
Airport Viracopos International Airport (SBKP)

Arrival

Time N/A
Airport Eurico de Aguiar Salles International Airport (SBVT)
Time Latitude Longitude Altitude Speed Heading
2026-05-01 11:48 -23.00403 -47.14858 2157 ft 0 kts 218°
2026-05-01 12:10 -23.00380 -47.14837 2149 ft 2 kts 234°
2026-05-01 12:10 -23.00372 -47.14822 2153 ft 2 kts 267°
2026-05-01 12:11 -23.00364 -47.14828 2151 ft 0 kts 302°
2026-05-01 12:12 -23.00363 -47.14830 2152 ft 2 kts 302°
2026-05-01 12:12 -23.00349 -47.14851 2153 ft 5 kts 307°
2026-05-01 12:12 -23.00329 -47.14880 2151 ft 4 kts 308°
2026-05-01 12:13 -23.00308 -47.14908 2152 ft 5 kts 309°
2026-05-01 12:13 -23.00283 -47.14942 2155 ft 6 kts 308°
2026-05-01 12:13 -23.00263 -47.14971 2157 ft 4 kts 306°
2026-05-01 12:13 -23.00241 -47.15002 2156 ft 6 kts 308°
2026-05-01 12:14 -23.00193 -47.15014 2153 ft 9 kts 28°
2026-05-01 12:14 -23.00138 -47.14968 2153 ft 11 kts 37°
2026-05-01 12:14 -23.00072 -47.14913 2152 ft 13 kts 38°
2026-05-01 12:14 -23.00012 -47.14845 2154 ft 11 kts 62°
2026-05-01 12:15 -22.99957 -47.14789 2149 ft 11 kts 38°
2026-05-01 12:15 -22.99910 -47.14736 2150 ft 9 kts 58°
2026-05-01 12:15 -22.99889 -47.14668 2154 ft 10 kts 84°
2026-05-01 12:15 -22.99920 -47.14595 2150 ft 12 kts 126°
2026-05-01 12:16 -23.00058 -47.14404 2149 ft 64 kts 128°
2026-05-01 12:16 -23.00452 -47.13853 2153 ft 119 kts 128°
2026-05-01 12:16 -23.01048 -47.13019 2164 ft 158 kts 128°
2026-05-01 12:16 -23.01720 -47.12072 2722 ft 159 kts 126°
2026-05-01 12:17 -23.02424 -47.11091 3094 ft 175 kts 125°
2026-05-01 12:17 -23.03218 -47.09992 3241 ft 195 kts 128°
2026-05-01 12:17 -23.04302 -47.08975 3382 ft 220 kts 144°
2026-05-01 12:17 -23.05648 -47.08078 3604 ft 244 kts 148°
2026-05-01 12:18 -23.06675 -47.07449 3989 ft 246 kts 148°
2026-05-01 12:18 -23.08183 -47.06542 4635 ft 256 kts 149°
2026-05-01 12:18 -23.10325 -47.05227 5149 ft 275 kts 148°
2026-05-01 12:18 -23.11457 -47.04520 5496 ft 280 kts 148°
2026-05-01 12:19 -23.13698 -47.03102 6339 ft 283 kts 148°
2026-05-01 12:19 -23.15395 -47.02002 6953 ft 285 kts 148°
2026-05-01 12:19 -23.16547 -47.01245 7344 ft 287 kts 148°
2026-05-01 12:19 -23.18258 -47.00116 7942 ft 289 kts 148°
2026-05-01 12:20 -23.19962 -46.98989 8486 ft 292 kts 149°
2026-05-01 12:20 -23.21795 -46.97967 9072 ft 293 kts 155°
2026-05-01 12:20 -23.23640 -46.96999 9654 ft 295 kts 155°
2026-05-01 12:20 -23.25490 -46.96027 10247 ft 295 kts 155°
2026-05-01 12:21 -23.27345 -46.95051 10757 ft 297 kts 155°
2026-05-01 12:21 -23.29188 -46.94079 11224 ft 299 kts 155°
2026-05-01 12:21 -23.31059 -46.93002 11696 ft 302 kts 145°
2026-05-01 12:21 -23.32509 -46.91384 12131 ft 307 kts 122°
2026-05-01 12:22 -23.33287 -46.89226 12612 ft 310 kts 98°